Location: Chihuahua
(28.6330°N, 106.0830°W)
Time: 14:43:50
(UTC-07:00)

Daily predictions for brighter satellites

Satellite Brightness Start Highest point End
(mag) Time Altitude Azimuth Time Altitude Azimuth Time Altitude Azimuth
H-2A R/B 3.3 18:33:13 10° W 18:36:35 65° S 18:53:50 10° ESE
Cosmos 2082 4.0 18:41:52 10° N 18:47:15 46° ENE 18:52:37 10° SE
Meteor 1-5 Rocket 4.3 18:45:54 10° S 18:51:12 79° W 18:56:41 10° N
METEOR-M 4.3 18:49:07 10° SSE 18:54:18 53° ENE 18:59:29 10° N
Cosmos 1025 Rocket 4.2 18:53:54 10° NNW 18:58:03 46° W 19:02:09 10° SSW
GPS 2-15 Rocket1 4.5 18:57:49 10° WSW 19:01:41 26° S 19:05:35 10° SE
Cosmos 468 Rocket 3.9 18:58:13 10° S 19:03:16 65° ESE 19:08:21 10° NNE
BREEZE-M DEB (TANK) 3.7 18:56:24 10° NW 19:06:22 59° SW 19:09:37 10° SSE
Cosmos 841 Rocket 4.4 19:02:39 10° SSE 19:06:54 25° E 19:11:06 10° NE
Cosmos 1743 4.2 19:06:00 10° SE 19:08:40 18° E 19:11:21 10° NE
Cosmos 1697 Rocket 2.7 19:03:07 10° SSW 19:08:46 88° ESE 19:14:26 10° NNE
Cosmos 1346 Rocket 2.9 19:04:58 10° N 19:08:59 85° W 19:13:00 10° S
OTV 4 0.6 19:07:04 10° WNW 19:10:00 64° SSW 19:12:15 15° SE
Orbus 7S 3.9 19:01:19 10° W 19:10:16 77° S 19:12:55 16° E
Meteor 2-15 4.5 19:05:03 10° N 19:11:07 87° W 19:17:10 10° S
CZ-4B DEB 3.4 19:09:46 10° SE 19:12:47 35° ENE 19:15:49 10° N
Cosmos 220 Rocket 4.1 19:09:00 10° N 19:13:05 49° ENE 19:17:10 10° SSE
Okean 2 4.0 19:09:45 10° NNW 19:13:51 59° W 19:17:53 10° S
Meteor 1-12 Rocket 4.3 19:09:16 10° S 19:14:59 88° E 19:20:50 10° N
Meteor 1-29 4.2 19:11:56 10° N 19:15:16 46° WNW 19:18:38 10° SSW
Cosmos 1455 Rocket 4.5 19:12:11 10° SSW 19:16:16 41° W 19:20:24 10° N
Cosmos 1814 Rocket 4.0 19:13:02 10° S 19:18:21 77° ESE 19:23:39 10° NNE
Cosmos 1626 Rocket 3.7 19:14:12 10° N 19:18:26 49° E 19:22:36 10° SSE
Meteor 2-15 Rocket 4.4 19:12:58 10° N 19:19:03 89° W 19:25:07 10° S
DELTA 2 R/B (1) 3.9 19:16:50 10° NW 19:22:19 56° NNE 19:26:10 19° E
Helios 1B rocket 4.3 19:19:05 10° N 19:22:50 34° WNW 19:26:33 10° SW
Cosmos 1605 Rocket 4.3 19:18:02 10° SSW 19:24:21 71° W 19:30:36 10° N
USA 186 2.8 19:24:27 23° E 19:24:31 23° ENE 19:26:52 10° NNE
SL-16 R/B 3.3 19:20:54 10° SSE 19:24:59 21° E 19:29:04 10° NE
NOSS 3-4 (A) 4.4 19:18:28 10° NW 19:25:33 60° WSW 19:32:59 10° SSE
NOSS 3-4 (C) 4.4 19:18:36 10° NW 19:25:41 61° WSW 19:33:07 10° SSE
Lacrosse 5 2.8 19:23:17 10° NNW 19:27:48 32° NE 19:30:12 21° E
Cosmos 1602 Rocket 3.5 19:25:13 10° N 19:29:38 69° E 19:33:58 10° SSE
Cosmos 1980 Rocket 2.1 19:28:04 10° SSW 19:33:43 85° ESE 19:39:26 10° NNE
Cosmos 2100 Rocket 4.0 19:30:54 10° SSE 19:37:01 57° E 19:43:06 10° NNE
Iridium 4 Rocket 3.1 19:33:25 10° N 19:38:01 60° E 19:41:45 13° SSE
ALOS 2.2 19:34:40 10° SSE 19:39:19 75° ENE 19:43:59 10° N
H-2A R/B 2.8 19:37:17 23° SSE 19:39:31 58° ENE 19:43:22 10° N
FENGYUN 3A 3.6 19:34:24 10° SSE 19:39:43 71° ENE 19:45:03 10° N
Resurs 1-3 4.3 19:38:23 10° S 19:42:39 53° W 19:46:57 10° NNW
Envisat 4.2 19:52:51 23° ENE 19:52:51 23° ENE 19:56:24 10° NNE
RESURS DK-1 2.5 19:48:56 10° N 19:52:59 54° ENE 19:53:33 49° E
Tiangong 1 3.1 19:50:52 10° NNW 19:53:02 19° NNE 19:53:02 19° NNE
OAO 2 Rocket 3.9 19:50:10 10° WNW 19:55:00 48° NNE 19:56:54 32° ENE
Cosmos 1606 Rocket 3.6 19:53:55 39° SE 19:55:11 54° E 19:59:30 10° NNE
Cosmos 2061 Rocket 3.9 19:50:26 10° S 19:56:44 77° E 20:02:59 10° N
Cosmos 1459 Rocket 3.8 19:51:19 10° S 19:57:21 81° E 20:03:28 10° N
Cosmos 2058 Rocket 4.4 19:59:24 25° NE 19:59:24 25° NE 20:01:41 10° NNE
Cosmos 1937 Rocket 3.5 19:54:17 10° N 19:59:32 66° ENE 20:01:21 40° SE
Cosmos 990 Rocket 4.1 20:00:10 10° N 20:05:16 52° ENE 20:05:51 50° E
Fermi 4.3 20:01:54 10° W 20:05:44 44° SSW 20:05:44 44° SSW
Myojo/LAPS 3.7 20:04:57 10° W 20:06:32 41° W 20:06:32 41° W
CZ-2D R/B 4.1 20:05:22 22° SSW 20:07:33 48° W 20:11:19 10° NNW
Cosmos 1340 4.0 20:04:00 10° N 20:06:07 28° NNE 20:06:07 28° NNE
Cosmos 1725 Rocket 4.3 20:07:38 42° E 20:07:50 42° E 20:13:37 10° NNE
ERS-1 Rocket 3.3 20:09:01 45° ENE 20:09:01 45° ENE 20:13:40 10° N
Cosmos 2322 Rocket 2.1 20:03:45 10° S 20:09:15 62° ESE 20:14:47 10° NNE
Cosmos 2227 Rocket 4.3 20:08:13 10° NW 20:12:36 23° WSW 20:16:57 10° SSW
Resurs 01 Rocket 4.4 20:11:54 10° SW 20:14:38 16° W 20:17:23 10° WNW
Cosmos 1726 Rocket 3.4 20:17:11 80° NNE 20:17:11 80° NNE 20:21:23 10° N
Lacrosse 5 rocket 3.8 20:20:35 10° W 20:21:59 12° WSW 20:23:14 10° SW
Meteor 2-9 Rocket 4.0 20:24:13 71° E 20:24:13 71° E 20:29:36 10° NNE
Cosmos 2297 Rocket 4.1 20:22:35 10° NW 20:27:07 25° WSW 20:31:38 10° SSW
Meteor 1-15 Rocket 4.2 20:38:35 83° ENE 20:38:35 83° ENE 20:44:21 10° N
Cosmos 1825 Rocket 4.3 20:35:03 10° NNW 20:38:42 49° WNW 20:38:42 49° WNW
Cosmos 2227 4.2 20:36:40 10° NNW 20:41:58 77° N 20:41:58 77° N
H-2A R/B 4.4 20:49:17 16° N 20:49:17 16° N 20:50:09 10° N
Cosmos 2098 Rocket 4.5 20:54:30 28° SSW 20:58:06 58° W 21:03:52 10° N
CZ-3C R/B 3.4 20:34:45 10° W 21:01:29 41° SSW 21:02:33 40° SSW
Milstar 3 Cent rocket 4.0 20:41:51 10° W 21:04:07 74° SSW 21:06:49 60° SE
SL-16 R/B 3.4 21:03:29 10° SW 21:08:43 38° WNW 21:13:59 10° N
Lacrosse 5 3.7 21:06:21 10° WNW 21:09:26 25° W 21:09:26 25° W
Cosmos 2263 Rocket 4.4 21:42:15 10° NNW 21:43:44 19° NNW 21:43:44 19° NNW
